Voltar ao catálogo

THOR ABLESTAR DEB

AtivoLEO
NORAD 264·DEBRIS·🇺🇸 United States

Lançado Jun 29, 1961 de Cape Canaveral Space Force Station

Loading…

Próximas Passagens (próximas 24 horas)

TLE

AtualizadoSource: Space-Track

Época: Sep 7, 2026, 07:30 UTC

1 00264U 61015CL  26250.31287872  .00001187  00000-0  40858-3 0  9993
2 00264  66.5246  12.8129 0025509 313.3819  46.5157 14.39333218345473

Acompanhe THOR ABLESTAR DEB em tempo real com AllMySat

Download on the App Store